Location: ?????
(31.8092°N, 35.2590°E)
Time: 17:21:09
(UTC+00:00)

Cosmos 2061 Rocket - Pass Details

Date: 20 June 2021
Orbit: 965 x 1013 km, 82.9° (Epoch: 03 August)

Event Time Altitude Azimuth Distance (km) Brightness Sun altitude
Rises 19:48:02 0° 347° (NNW) 3,748 8.2 -28.5°
Reaches altitude 10° 19:50:38 10° 343° (NNW) 2,790 7.3 -28.8°
Maximum altitude 19:56:49 52° 269° (W) 1,222 4.5 -29.4°
Enters shadow 19:57:54 47° 236° (WSW) 1,297 4.5 -29.5°
